Dauntless Aviation
Greetings, Guest! To participate, [sign up for a free account] or [log in]
Airports Europe Germany
EDSW

Altdorf-Wallburg

Altdorf-Wallburg, GERMANY

Airport Info
Edit

Location

Latitude / Longitude: 48°16'11"N / 7°50'31"E
  48°16.188'N / 7°50.532'E
  48.2698 / 7.8422
Satellite photo at:
Airport distance calculator
From:
Weather Reports

METAR

LFST
18.2nm NW
LFST 250330Z AUTO 31009KT 9999 NSC 01/M01 Q1028

TAF

LFST
18.2nm NW
TAF LFST 242300Z 2500/2524 30005KT 9999 SCT025 BKN045 PROB30 TEMPO 2500/2509 VRB03KT 1500 BR BKN008 BECMG 2509/2512 NSW
EDSB
32.3nm N
TAF EDSB 241700Z 2418/2518 23006KT 6000 SCT008 BKN015 TEMPO 2418/2424 3000 -SN BKN008 PROB30 TEMPO 2418/2420 2000 SN BKN004 TEMPO 2500/2509 3000 BR BKN006
Safelog

 

Dauntless Aviation

© 2007-2015 Dauntless Aviation, all rights reserved
Information provided via PilotNav comes from a variety of official and unofficial data sources. As errors are possible, do not use PilotNav for primary flight planning purposes. Verify any information that you receive via PilotNav with current and canonical charts and other official documents. The material in this database is subject to database copyrights held by Dauntless Aviation and may not be copied without the express permission of Dauntless Aviation - licenses for use of part of all of this data are available for purchase; enquire via the Dauntless Aviation helpdesk. A number of mechanisms and markers exist in the database to protect against and identify infringement / copyright. Automated queries against this website are stictly prohibited, and all activity is logged and analyzed.